Location: Oberwangen
(47.4286°N, 8.9679°E)
Time: 09:32:01
(UTC+00:00)

Cosmos 1536 Rocket - Pass Details

Date: 20 June 2021
Orbit: 604 x 633 km, 82.5° (Epoch: 04 August)

Event Time Altitude Azimuth Distance (km) Brightness Sun altitude
Exits shadow 20:28:11 10° 156° (SSE) 2,013 5.6 -8.6°
Reaches altitude 10° 20:28:11 10° 156° (SSE) 2,009 5.6 -8.6°
Maximum altitude 20:32:14 35° 91° (E) 1,022 4.4 -9.1°
Drops below altitude 10° 20:36:17 10° 26° (NNE) 2,012 6.5 -9.5°
Sets 20:38:39 0° 17° (NNE) 2,919 7.5 -9.8°
